Mason City, IA

4:43 PM CDT on September 24, 2017 (GMT -0500)
Mason City Municipal

Weather History for KMCW - March, 2014

Change the Weather History Date:

Tuesday, March 11, 2014

  Actual Average Record
Temperature  
Mean Temperature 35 °F -  
Max Temperature 40 °F - 67 °F (2016)
Min Temperature 30 °F - -25 °F (1948)
Degree Days  
Heating Degree Days 30    
Month to date heating degree days 534  
Since 1 July heating degree days 7080  
Cooling Degree Days 0 0  
Month to date cooling degree days 0 0  
Year to date cooling degree days 0 0  
Moisture  
Dew Point 32 °F    
Average Humidity 85    
Maximum Humidity 100    
Minimum Humidity 70    
Precipitation  
Precipitation 0.04 in - 1.01 in (1990)
Month to date precipitation 0.46  
Year to date precipitation 3.48  
Snow  
Snow T in - - ()
Month to date snowfall 5.0  
Since 1 July snowfall 51.1  
Snow Depth 14.00 in    
Sea Level Pressure  
Sea Level Pressure 29.82 in    
Wind  
Wind Speed 17 mph (North)    
Max Wind Speed 28 mph    
Max Gust Speed 34 mph    
Visibility 8 miles    
Events Rain , Snow    
T = Trace of Precipitation, MM = Missing Value Source: NWS Daily Summary

Daily Weather History Graph

Daily Weather History Graph

Search for Another Location

Airport or City:

Trip Planner

Search our weather history database for the weather conditions in past years. The results will help you decide how hot, cold, wet, or windy it might be!

Date:

Astronomy

Mar. 11, 2014 Rise Set
Actual Time 7:32 AM CDT 7:14 PM CDT
Civil Twilight 7:04 AM CDT 7:43 PM CDT
Nautical Twilight 6:31 AM CDT 8:16 PM CDT
Astronomical Twilight 5:57 AM CDT 8:49 PM CDT
Moon 2:46 PM CDT (3/11) 4:32 AM CDT (3/11)
Length of Visible Light 12h 39m
Length of Day
11h 42m
Waxing Gibbous, 78% of the Moon is Illuminated
Mar 11
Waxing Gibbous
Mar 16
Full
Mar 23
Last Quarter
Mar 30
New
Apr 7
First Quarter

Hourly Weather History & Observations

Time (CDT) Temp. Windchill Dew Point Humidity Pressure Visibility Wind Dir Wind Speed Gust Speed Precip Events Conditions
12:53 AM 35.1 °F 32.2 °F 33.1 °F 92% 29.71 in 10.0 mi NNE 3.5 mph - N/A   Clear
1:53 AM 35.1 °F 32.2 °F 34.0 °F 96% 29.71 in 10.0 mi North 3.5 mph - N/A   Overcast
2:53 AM 36.0 °F - 35.1 °F 97% 29.71 in 10.0 mi Calm Calm - N/A   Overcast
3:53 AM 37.0 °F 29.3 °F 34.0 °F 89% 29.70 in 10.0 mi NNE 11.5 mph - 0.00 in   Overcast
4:53 AM 39.0 °F 30.3 °F 30.9 °F 73% 29.68 in 10.0 mi NNE 16.1 mph - N/A   Overcast
5:53 AM 37.9 °F 30.0 °F 32.0 °F 79% 29.68 in 10.0 mi NNE 12.7 mph - N/A   Partly Cloudy
6:53 AM 39.0 °F 30.3 °F 30.9 °F 73% 29.67 in 10.0 mi NNE 16.1 mph - N/A   Clear
7:53 AM 37.9 °F 28.9 °F 32.0 °F 79% 29.71 in 10.0 mi NNE 16.1 mph - N/A   Clear
8:53 AM 37.0 °F 27.0 °F 33.1 °F 86% 29.74 in 10.0 mi NNE 18.4 mph - N/A   Overcast
9:53 AM 37.0 °F 26.2 °F 34.0 °F 89% 29.78 in 10.0 mi NNE 21.9 mph - N/A   Overcast
10:10 AM 36.0 °F 23.9 °F 34.0 °F 93% 29.76 in 10.0 mi NNE 25.3 mph - N/A   Overcast
10:53 AM 35.1 °F 23.8 °F 33.1 °F 92% 29.81 in 10.0 mi North 20.7 mph - N/A   Overcast
11:53 AM 36.0 °F 25.6 °F 34.0 °F 93% 29.84 in 10.0 mi NNE 18.4 mph - N/A   Overcast
12:11 PM 36.0 °F 25.6 °F 34.0 °F 93% 29.84 in 10.0 mi NNE 18.4 mph - N/A   Overcast
12:53 PM 35.1 °F 25.9 °F 34.0 °F 96% 29.87 in 10.0 mi North 13.8 mph - 0.00 in Rain Light Rain
1:25 PM 34.0 °F 23.0 °F 33.1 °F 96% 29.84 in 2.0 mi NNE 18.4 mph - 0.01 in Snow Light Snow
1:53 PM 34.0 °F 23.4 °F 33.1 °F 96% 29.86 in 2.5 mi NNE 17.3 mph - 0.02 in Snow Light Snow
2:09 PM 33.1 °F 21.9 °F 33.1 °F 100% 29.83 in 1.8 mi NNE 18.4 mph - 0.00 in Snow Light Snow
2:17 PM 34.0 °F 23.0 °F 33.1 °F 96% 29.83 in 2.5 mi NNE 18.4 mph - 0.00 in Snow Light Snow
2:29 PM 33.1 °F 22.6 °F 32.0 °F 96% 29.83 in 1.2 mi NNE 16.1 mph - 0.01 in Snow Light Snow
2:53 PM 33.1 °F 22.2 °F 32.0 °F 96% 29.84 in 0.8 mi NNE 17.3 mph - 0.01 in Snow Light Snow
3:11 PM 33.1 °F 22.6 °F 32.0 °F 96% 29.82 in 0.8 mi North 16.1 mph - 0.01 in Snow Light Snow
3:25 PM 33.1 °F 22.6 °F 32.0 °F 96% 29.81 in 1.0 mi NNE 16.1 mph - 0.01 in Snow Light Snow
3:32 PM 34.0 °F 23.8 °F 33.1 °F 96% 29.82 in 3.0 mi NNE 16.1 mph - 0.01 in Snow Light Snow
3:45 PM 35.1 °F 25.9 °F 33.1 °F 92% 29.83 in 9.0 mi NNE 13.8 mph - 0.01 in   Overcast
3:53 PM 35.1 °F 27.4 °F 33.1 °F 92% 29.85 in 10.0 mi NNE 10.4 mph - 0.01 in   Overcast
4:53 PM 36.0 °F 29.0 °F 30.0 °F 79% 29.88 in 10.0 mi North 9.2 mph - N/A   Overcast
5:53 PM 36.0 °F 27.5 °F 30.9 °F 82% 29.92 in 10.0 mi NW 12.7 mph - N/A   Overcast
6:53 PM 35.1 °F 25.2 °F 28.9 °F 78% 29.94 in 10.0 mi NNW 16.1 mph - N/A   Overcast
7:53 PM 35.1 °F 25.2 °F 28.9 °F 78% 29.96 in 10.0 mi NNW 16.1 mph - N/A   Overcast
8:53 PM 35.1 °F 24.5 °F 28.9 °F 78% 29.96 in 10.0 mi NNW 18.4 mph - N/A   Partly Cloudy
9:53 PM 34.0 °F 21.8 °F 28.0 °F 79% 29.95 in 10.0 mi NNW 23.0 mph - N/A   Clear
10:53 PM 33.1 °F 20.3 °F 26.1 °F 75% 29.97 in 10.0 mi NNW 24.2 mph 31.1 mph N/A   Clear
11:53 PM 32.0 °F 19.2 °F 24.1 °F 73% 29.98 in 10.0 mi NNW 23.0 mph - N/A   Clear